SL-16 DEB, 29100

Orbit data source: Space-Track

SL-16 DEB, 29100 is space debris in LEO originally from a launch on Fri, 26 Mar 1993 UTC launched from the Tyuratam Missile And Space Complex (TTMTR). Debris objects in space refer to the collection of defunct objects orbiting the Earth. Examples of debris include non-operational satellites, rocket bodies, and fragments generated from explosions, collisions, or faulty payload assembly.

Loading next visibility...
Identifier
29100, 1993-016AP
Orbit
LEO
Country
Flag of CISCIS
Related business
Manufacturer
Unknown
Mission
Spacecraft
Bus & Motor
Unknown
Mass
Unknown
Launch date (UTC)
1993-03-26 (33 years ago)
Launch vehicle
Unknown
Launch site
Tyuratam Missile And Space Complex (TTMTR)
Object type
Payload
Rocket body
Debris
Shape & HBR
Unknown shape, 0.1 m
Radar Cross Section
Small (<0.1 m²)

Expand to show TLE details & history
Last TLE update: 4 days ago

TLE from 4 days ago
0 SL-16 DEB
1 29100U 93016AP  25337.08055051  .00000915  00000-0  51453-3 0  9991
2 29100  70.7255 128.4799 0072300   3.3428 356.8159 14.11916507203739
Epoch: 2025-12-03T01:55Z
TLE epoch observation values (Epoch: 2025-12-03T01:55:59.564Z)
Latitude
0.00004°
Longitude
27.32525°
Altitude
802.994 km
Speed
7.479 km/s
True Right ascension
08h 33m 55s
True Declination
0° 00' 00"
Sunlit
Object was in full shadow at epoch
Visualization orbit readout
Latitude
Unknown
Longitude
Unknown
Altitude
Unknown
Speed
Unknown
Apparent Right ascension
Unknown
Apparent Declination
Unknown
Sunlit
N/A
Visualization observer readout
Local Sidereal Time
07:59:10
Azimuth
Unknown
Elevation
Unknown
Doppler factor
Unknown
Orbital elements
Apogee altitude
903.041 km
Perigee altitude
798.511 km
Semi-major axis
7,228.913 km
Eccentricity
0.00723
Inclination
70.7255°
RAAN
128.4799°
Arg. of periapsis
3.3428°
True anomaly
356.76946°
Mean anomaly
356.8159°
Eccentric anomaly
356.79272°
Mean motion
3.53129 °/min
Orbital period
101.95 mins
BSTAR
0.00051453
Loading maneuver chart data...
Computing Atmospheric mass density...
Loading historical data...
Loading historical data...
Loading historical data...
Loading historical data...
Loading historical data...
Loading historical data...
Loading historical data...

Documentation

Showing up to 5 results
|